Location: Drocourt
(49.0571°N, 1.7669°E)
Time: 20:20:34
(UTC+00:00)

Transit 4A - Pass Details

Date: 13 April 2024
Orbit: 871 x 971 km, 66.8° (Epoch: 18 May)

Event Time Altitude Azimuth Distance (km) Brightness Sun altitude
Rises 21:13:22 0° 325° (NW) 3,478 12.4 -21.8°
Reaches altitude 10° 21:16:06 10° 334° (NNW) 2,532 11.2 -22.1°
Maximum altitude 21:21:23 34° 39° (NE) 1,409 8.9 -22.7°
Enters shadow 21:23:34 26° 78° (ENE) 1,657 8.9 -22.9°
Drops below altitude 10° 21:26:39 10° 104° (ESE) 2,529 - -23.2°
Sets 21:29:22 0° 113° (ESE) 3,473 - -23.5°
